Showing default

COSMOS 2245, 22646

Orbit data source: Space-Track

COSMOS 2245, 22646 is a payload satellite owned by VKS (CIS) in LEO that was launched on Tue, 11 May 1993 UTC via a TSIKLON-3 launch vehicle from the Plesetsk Missile And Space Complex (PKMTR). Payload-class satellites include a variety of spacecraft equipped with specific instruments for various scientific and technological missions. These include communications satellites like Starlink; space stations such as the ISS; scientific satellites like the Hubble; Earth observation satellites from companies like Planet Labs, Umbra, and HawkEye 360; GPS; miniature CubeSats for education and research; and military/defense satellites.

Loading next visibility...
Identifier
22646, 1993-030A
Orbit
LEO
Country
Flag of CISCIS
Related business
Manufacturer
NPO PM
Mission
Defense Communications
Bus & Motor
STRELA-3, Unknown motor
Mass
225 kg wet, 225 kg dry
Launch date (UTC)
1993-05-11 (33 years ago)
Launch vehicle
TSIKLON-3
Launch site
Plesetsk Missile And Space Complex (PKMTR)
Object type
Payload
Rocket body
Debris
Shape & HBR
Cyl, 0.8 m
Radar Cross Section
1.257 m², Medium (>0.1 m² and < 1m²)

Expand to show TLE details & history
Last TLE update: 14 hours ago

TLE from 14 hours ago
0 COSMOS 2245
1 22646U 93030A   26034.48601311  .00000016  00000-0  28492-4 0  9990
2 22646  82.5832  35.7502 0011250 198.2099 275.4646 12.64072085510183
Epoch: 2026-02-03T11:39Z
TLE epoch observation values (Epoch: 2026-02-03T11:39:51.532Z)
Latitude
65.45708°
Longitude
-109.36016°
Altitude
1,416.632 km
Speed
7.159 km/s
True Right ascension
13h 17m 04s
True Declination
65° 20' 16"
Sunlit
Object was in daylight at epoch
Visualization orbit readout
Latitude
Unknown
Longitude
Unknown
Altitude
Unknown
Speed
Unknown
Apparent Right ascension
Unknown
Apparent Declination
Unknown
Sunlit
N/A
Visualization observer readout
Local Sidereal Time
03:31:34
Azimuth
Unknown
Elevation
Unknown
Doppler factor
Unknown
Orbital elements
Apogee altitude
1,412.254 km
Perigee altitude
1,394.745 km
Semi-major axis
7,781.637 km
Eccentricity
0.00113
Inclination
82.5832°
RAAN
35.7502°
Arg. of periapsis
198.2099°
True anomaly
275.33625°
Mean anomaly
275.4646°
Eccentric anomaly
275.40043°
Mean motion
3.16182 °/min
Orbital period
113.86 mins
BSTAR
0.000028492
Loading maneuver chart data...
Computing Atmospheric mass density...
Loading historical data...
Loading historical data...
Loading historical data...
Loading historical data...
Loading historical data...
Loading historical data...
Loading historical data...

Documentation

Showing up to 5 results
|